User: anonymous   Login
Location: Unspecified
(0.0000°N, 0.0000°E)
Time: 21:21:47
(UTC+00:00)
Language:

Tiros 10 - Orbit

View from above orbital plane
View from above orbital plane
View from above satellite
View from above satellite

Ground track
Ground track

The orbit data is extracted from the following two-line orbital elements,

1  1430U 65051A   17141.89783708 +.00000021 +00000-0 +19564-4 0  9991
2  1430 098.1382 297.3686 0055950 336.1099 023.7495 14.40188591718879
Epoch (UTC): 21 May 2017 21:32:53
Eccentricity: 0.0055950
inclination: 98.1382°
perigee height: 718 km
apogee height: 798 km
right ascension of ascending node: 297.3686°
argument of perigee: 336.1099°
revolutions per day: 14.40188591
mean anomaly at epoch: 23.7495°
orbit number at epoch: 71887

The dashed part of the orbit path shows where the satellite is in the earth's shadow,  

DLR